Frederick, OK

12:00 PM CST on December 11, 2017 (GMT -0600)
Frederick Municipal

Weather History for KFDR - August, 2013

Change the Weather History Date:

Friday, August 16, 2013

  Actual Average (KLTS) Record (KLTS)
Temperature  
Mean Temperature 78 °F -  
Max Temperature 89 °F 94 °F 106 °F (2011)
Min Temperature 66 °F 70 °F 62 °F (2016)
Cooling Degree Days 12    
Growing Degree Days 28 (Base 50)    
Moisture  
Dew Point 64 °F    
Average Humidity 74    
Maximum Humidity 94    
Minimum Humidity 42    
Precipitation  
Precipitation 0.23 in - - ()
Sea Level Pressure  
Sea Level Pressure 29.99 in    
Wind  
Wind Speed 11 mph (ESE)    
Max Wind Speed 30 mph    
Max Gust Speed 40 mph    
Visibility 10 miles    
Events Rain , Thunderstorm    
Averages and records for this station are not official NWS values.
T = Trace of Precipitation, MM = Missing Value Source: NWS Daily Summary

Daily Weather History Graph

Daily Weather History Graph

Search for Another Location

Airport or City:

Trip Planner

Search our weather history database for the weather conditions in past years. The results will help you decide how hot, cold, wet, or windy it might be!

Date:

Astronomy

Aug. 16, 2013 Rise Set
Actual Time 6:57 AM CDT 8:21 PM CDT
Civil Twilight 6:31 AM CDT 8:48 PM CDT
Nautical Twilight 5:59 AM CDT 9:19 PM CDT
Astronomical Twilight 5:26 AM CDT 9:52 PM CDT
Moon 4:37 PM CDT (8/16) 2:06 AM CDT (8/16)
Length of Visible Light 14h 16m
Length of Day
13h 23m
Waxing Gibbous, 75% of the Moon is Illuminated
Aug 16
Waxing Gibbous
Aug 20
Full
Aug 28
Last Quarter
Sep 5
New
Sep 12
First Quarter

Hourly Weather History & Observations

Time (CDT) Temp. Heat Index Dew Point Humidity Pressure Visibility Wind Dir Wind Speed Gust Speed Precip Events Conditions
12:53 AM 70.0 °F - 60.1 °F 71% 29.94 in 10.0 mi ENE 5.8 mph - N/A   Clear
1:53 AM 70.0 °F - 61.0 °F 73% 29.93 in 10.0 mi East 5.8 mph - N/A   Clear
2:53 AM 70.0 °F - 63.0 °F 78% 29.94 in 10.0 mi NE 6.9 mph - 0.00 in Rain Light Rain
3:00 AM 71.6 °F - 64.4 °F 78% 29.98 in 10.0 mi ESE 3.5 mph - 0.01 in Rain , Thunderstorm Light Rain
3:36 AM 68.0 °F - 64.4 °F 88% 30.06 in 8.0 mi ENE 29.9 mph 40.3 mph 0.05 in Rain , Thunderstorm Light Rain
3:44 AM 68.0 °F - 62.6 °F 83% 30.02 in 7.0 mi ENE 27.6 mph 38.0 mph 0.07 in Rain , Thunderstorm Thunderstorms and Rain
3:53 AM 66.9 °F - 64.0 °F 90% 29.95 in 5.0 mi East 20.7 mph 29.9 mph 0.10 in Rain , Thunderstorm Thunderstorms and Rain
4:42 AM 66.2 °F - 64.4 °F 94% 29.98 in 10.0 mi South 20.7 mph 25.3 mph 0.11 in Rain , Thunderstorm Light Rain
4:49 AM 66.2 °F - 64.4 °F 94% 29.98 in 10.0 mi South 19.6 mph - 0.12 in Rain , Thunderstorm Light Rain
4:53 AM 66.9 °F - 64.0 °F 90% 29.91 in 10.0 mi South 26.5 mph 31.1 mph 0.12 in Rain Light Rain
5:11 AM 66.2 °F - 64.4 °F 94% 30.04 in 10.0 mi West 9.2 mph - 0.01 in Rain , Thunderstorm Light Rain
5:45 AM 66.2 °F - 64.4 °F 94% 30.04 in 10.0 mi SSW 11.5 mph 20.7 mph 0.01 in Rain Light Rain
5:53 AM 66.9 °F - 64.9 °F 93% 29.96 in 10.0 mi SSW 9.2 mph - 0.01 in Rain Light Rain
6:49 AM 66.2 °F - 62.6 °F 88% 30.05 in 10.0 mi West 8.1 mph - 0.00 in   Mostly Cloudy
6:53 AM 66.9 °F - 63.0 °F 87% 30.00 in 10.0 mi WSW 8.1 mph - 0.00 in   Mostly Cloudy
7:13 AM 66.2 °F - 62.6 °F 88% 30.03 in 10.0 mi Variable 6.9 mph - N/A   Mostly Cloudy
7:22 AM 66.2 °F - 62.6 °F 88% 30.04 in 10.0 mi NW 6.9 mph - 0.00 in Rain Light Rain
7:53 AM 66.0 °F - 63.0 °F 90% 30.00 in 10.0 mi South 8.1 mph - 0.00 in   Clear
8:53 AM 66.9 °F - 63.0 °F 87% 30.03 in 10.0 mi WSW 8.1 mph - N/A   Clear
9:53 AM 71.1 °F - 64.0 °F 78% 30.02 in 10.0 mi WSW 4.6 mph - N/A   Clear
10:53 AM 75.9 °F - 62.1 °F 62% 30.01 in 10.0 mi West 5.8 mph - N/A   Clear
11:53 AM 79.0 °F - 63.0 °F 58% 30.01 in 10.0 mi SW 5.8 mph - N/A   Clear
12:53 PM 82.0 °F 83.4 °F 64.0 °F 54% 29.99 in 10.0 mi Variable 5.8 mph - N/A   Clear
1:53 PM 84.0 °F 84.9 °F 63.0 °F 49% 29.98 in 10.0 mi NW 4.6 mph - N/A   Clear
2:53 PM 87.1 °F 87.8 °F 63.0 °F 44% 29.96 in 10.0 mi Variable 3.5 mph - N/A   Clear
3:53 PM 89.1 °F 90.0 °F 63.0 °F 42% 29.95 in 10.0 mi East 9.2 mph - N/A   Clear
4:53 PM 89.1 °F 90.0 °F 63.0 °F 42% 29.95 in 10.0 mi ENE 8.1 mph - N/A   Clear
5:53 PM 87.1 °F 87.8 °F 63.0 °F 44% 29.95 in 10.0 mi ENE 10.4 mph - N/A   Scattered Clouds
6:53 PM 86.0 °F 87.3 °F 64.0 °F 48% 29.95 in 10.0 mi East 13.8 mph - N/A   Clear
7:53 PM 82.9 °F 84.4 °F 64.0 °F 53% 29.96 in 10.0 mi East 11.5 mph - N/A   Clear
8:53 PM 79.0 °F - 66.0 °F 64% 29.99 in 10.0 mi East 10.4 mph - N/A   Clear
9:53 PM 77.0 °F - 66.0 °F 69% 30.01 in 10.0 mi East 10.4 mph - N/A   Clear
10:53 PM 75.0 °F - 64.9 °F 71% 30.03 in 10.0 mi East 10.4 mph - N/A   Clear
11:53 PM 73.0 °F - 64.9 °F 76% 30.03 in 10.0 mi East 11.5 mph - N/A   Clear